GW1163 Weather Reports


Display with metric or nautical units.
time (UTC)temp
F
wind
direction
speed
MPH
gust
MPH
rain 1hr
in
rain 24hr
in
rain mn
in
humidity
%
barometer
mb
20260509135035 71 244 0.0 3.0 0.00 0.00 0.00 82 1013.4
20260509134557 72 244 0.0 3.0 0.00 0.00 0.00 82 1013.4
20260509134035 72 0 0.0 3.0 0.00 0.00 0.00 82 1013.3
20260509133536 71 322 0.0 2.0 0.00 0.00 0.00 82 1013.4
20260509133049 71 0 0.0 2.0 0.00 0.00 0.00 83 1013.5
20260509132536 71 0 0.0 2.0 0.00 0.00 0.00 82 1013.4
20260509132040 71 0 0.0 1.0 0.00 0.00 0.00 83 1013.6
20260509131551 71 0 0.0 0.0 0.00 0.00 0.00 83 1013.7
20260509131039 71 0 0.0 2.0 0.00 0.00 0.00 83 1013.7
20260509130536 70 0 0.0 2.0 0.00 0.00 0.00 83 1013.6
20260509130052 70 0 0.0 2.0 0.00 0.00 0.00 83 1013.7
20260509125536 70 0 0.0 0.0 0.00 0.00 0.00 83 1013.7
20260509125040 70 0 0.0 2.0 0.00 0.00 0.00 83 1013.7
20260509124546 70 0 0.0 2.0 0.00 0.00 0.00 83 1013.8
20260509124036 70 340 0.0 2.0 0.00 0.00 0.00 83 1013.9
20260509123539 70 340 0.0 2.0 0.00 0.00 0.00 83 1013.8
20260509123046 70 0 0.0 2.0 0.00 0.00 0.00 83 1013.8
20260509122536 69 0 0.0 2.0 0.00 0.00 0.00 84 1013.8
20260509122036 69 0 0.0 2.0 0.00 0.00 0.00 84 1013.8
20260509121547 69 335 0.0 2.0 0.00 0.00 0.00 84 1013.7
20260509121037 69 0 0.0 2.0 0.00 0.00 0.00 84 1013.7
20260509120537 68 335 0.0 2.0 0.00 0.00 0.00 85 1013.7
20260509120054 68 0 0.0 2.0 0.00 0.00 0.00 86 1013.5
20260509115539 67 333 0.0 2.0 0.00 0.00 0.00 86 1013.5
20260509115036 66 333 1.0 2.0 0.00 0.00 0.00 88 1013.5
20260509114547 66 0 0.0 0.0 0.00 0.00 0.00 88 1013.3
20260509114036 65 0 0.0 0.0 0.00 0.00 0.00 89 1013.2
20260509113536 65 0 0.0 0.0 0.00 0.00 0.00 89 1013.2
20260509113048 64 0 0.0 0.0 0.00 0.00 0.00 89 1013.3
20260509112536 64 0 0.0 0.0 0.00 0.00 0.00 89 1013.2
20260509112036 64 0 0.0 0.0 0.00 0.00 0.00 89 1013.2
20260509111551 64 0 0.0 0.0 0.00 0.00 0.00 89 1013.2
20260509111036 64 0 0.0 0.0 0.00 0.00 0.00 90 1013.1
20260509110535 63 0 0.0 0.0 0.00 0.00 0.00 90 1013.1
20260509110049 63 0 0.0 0.0 0.00 0.00 0.00 90 1013.0
20260509105536 63 0 0.0 0.0 0.00 0.00 0.00 90 1013.0
20260509105039 63 0 0.0 0.0 0.00 0.00 0.00 90 1012.8
20260509104550 63 0 0.0 0.0 0.00 0.00 0.00 90 1012.8
20260509104036 63 0 0.0 0.0 0.00 0.00 0.00 90 1012.8
20260509103535 63 0 0.0 0.0 0.00 0.00 0.00 89 1012.7
20260509103047 63 0 0.0 0.0 0.00 0.00 0.00 89 1012.6
20260509102536 63 0 0.0 0.0 0.00 0.00 0.00 89 1012.5
20260509102037 63 0 0.0 0.0 0.00 0.00 0.00 89 1012.5
20260509101556 63 0 0.0 0.0 0.00 0.00 0.00 89 1012.4
20260509101037 63 0 0.0 0.0 0.00 0.00 0.00 88 1012.7
20260509100536 64 0 0.0 0.0 0.00 0.00 0.00 88 1012.4
20260509100048 64 0 0.0 0.0 0.00 0.00 0.00 88 1012.4
20260509095536 64 0 0.0 0.0 0.00 0.00 0.00 88 1012.5
20260509095035 64 0 0.0 0.0 0.00 0.00 0.00 88 1012.7
20260509094547 64 0 0.0 0.0 0.00 0.00 0.00 88 1012.9
20260509094038 64 0 0.0 0.0 0.00 0.00 0.00 88 1012.6
20260509093541 64 0 0.0 0.0 0.00 0.00 0.00 88 1012.5
20260509093055 64 0 0.0 0.0 0.00 0.00 0.00 88 1012.5
20260509092538 64 0 0.0 0.0 0.00 0.00 0.00 88 1012.7
20260509092038 64 0 0.0 0.0 0.00 0.00 0.00 87 1012.6
20260509091548 64 0 0.0 0.0 0.00 0.00 0.00 87 1012.8
20260509091036 64 0 0.0 0.0 0.00 0.00 0.00 87 1012.8
20260509090537 64 0 0.0 0.0 0.00 0.00 0.00 87 1013.0
20260509090047 65 0 0.0 0.0 0.00 0.00 0.00 86 1013.1
20260509085536 65 0 0.0 0.0 0.00 0.00 0.00 86 1012.9
20260509085039 65 0 0.0 0.0 0.00 0.00 0.00 86 1013.0
20260509084554 65 0 0.0 0.0 0.00 0.00 0.00 86 1013.1
20260509084035 65 0 0.0 1.0 0.00 0.00 0.00 86 1012.9
20260509083535 65 0 0.0 1.0 0.00 0.00 0.00 86 1012.8
20260509083044 65 0 0.0 0.0 0.00 0.00 0.00 86 1012.9
20260509082536 65 0 0.0 0.0 0.00 0.00 0.00 87 1013.2
20260509082039 65 0 0.0 0.0 0.00 0.00 0.00 87 1013.2
20260509081547 65 0 0.0 0.0 0.00 0.00 0.00 87 1013.3
20260509081039 65 0 0.0 0.0 0.00 0.00 0.00 87 1013.2
20260509080535 65 0 0.0 0.0 0.00 0.00 0.00 87 1012.9
20260509080055 65 0 0.0 0.0 0.00 0.00 0.00 87 1012.9
20260509075536 65 0 0.0 0.0 0.00 0.00 0.00 86 1013.0
20260509075041 65 0 0.0 2.0 0.00 0.00 0.00 86 1013.3
20260509074548 65 0 0.0 2.0 0.00 0.00 0.00 86 1013.4
20260509074036 65 188 0.0 2.0 0.00 0.00 0.00 86 1013.5
20260509073536 65 0 0.0 1.0 0.00 0.00 0.00 86 1013.7
20260509073048 65 0 0.0 1.0 0.00 0.00 0.00 86 1013.4
20260509072539 65 0 0.0 2.0 0.00 0.00 0.00 86 1013.2
20260509072035 65 0 0.0 2.0 0.00 0.00 0.00 86 1013.1
20260509071548 65 188 0.0 2.0 0.00 0.00 0.00 86 1012.8
20260509071039 66 0 0.0 2.0 0.00 0.00 0.00 86 1012.8
20260509070537 66 188 0.0 2.0 0.00 0.00 0.00 85 1012.7
20260509070054 66 0 0.0 2.0 0.00 0.00 0.00 85 1012.9
20260509065535 66 188 0.0 1.0 0.00 0.00 0.00 85 1013.0
20260509065037 66 0 0.0 0.0 0.00 0.00 0.00 85 1013.2
20260509064546 66 0 0.0 2.0 0.00 0.00 0.00 85 1013.2
20260509064037 66 0 0.0 2.0 0.00 0.00 0.00 85 1013.5
20260509063536 66 0 0.0 1.0 0.00 0.00 0.00 85 1013.4
20260509063049 66 0 0.0 2.0 0.00 0.00 0.00 85 1013.7
20260509062536 66 0 0.0 2.0 0.00 0.00 0.00 83 1013.8
20260509062037 67 0 0.0 2.0 0.00 0.00 0.00 83 1014.1
20260509061552 67 0 0.0 2.0 0.00 0.00 0.00 82 1014.1
20260509061036 67 0 0.0 1.0 0.00 0.00 0.00 82 1013.6
20260509060536 67 0 0.0 1.0 0.00 0.00 0.00 82 1013.6
20260509060049 67 0 0.0 5.0 0.00 0.00 0.00 81 1013.7
20260509055536 67 0 0.0 5.0 0.00 0.00 0.00 81 1014.2
20260509055035 67 0 1.0 5.0 0.00 0.00 0.00 81 1014.1
20260509054554 67 46 1.0 5.0 0.00 0.00 0.00 81 1014.2
20260509054036 67 186 2.0 5.0 0.00 0.00 0.00 80 1013.9
20260509053537 66 182 1.0 4.0 0.00 0.00 0.00 81 1013.8
20260509053047 66 175 0.0 3.0 0.00 0.00 0.00 82 1014.1
20260509052537 65 175 0.0 1.0 0.00 0.00 0.00 82 1014.2
20260509052040 65 0 0.0 0.0 0.00 0.00 0.00 81 1014.5
20260509051557 65 0 0.0 0.0 0.00 0.00 0.00 81 1014.8
20260509051036 65 0 0.0 1.0 0.00 0.00 0.00 81 1015.0
20260509050536 65 0 0.0 1.0 0.00 0.00 0.00 81 1015.0
20260509050048 65 0 0.0 0.0 0.00 0.00 0.00 81 1015.4
20260509045536 66 0 0.0 0.0 0.00 0.00 0.00 80 1015.3
20260509045036 66 0 0.0 0.0 0.00 0.00 0.00 80 1015.5
20260509044548 65 0 0.0 1.0 0.00 0.00 0.00 81 1015.4
20260509044036 65 0 0.0 1.0 0.00 0.00 0.00 81 1015.4
20260509043536 65 0 0.0 2.0 0.00 0.00 0.00 81 1015.3
20260509043050 65 0 0.0 2.0 0.00 0.00 0.00 81 1015.1
20260509042537 65 169 0.0 1.0 0.00 0.00 0.00 81 1015.2
20260509042036 65 0 0.0 0.0 0.00 0.00 0.00 81 1014.6
20260509041551 65 0 0.0 0.0 0.00 0.00 0.00 81 1015.1
20260509041036 65 0 0.0 0.0 0.00 0.00 0.00 81 1015.3
20260509040536 65 0 0.0 0.0 0.00 0.00 0.00 81 1015.6
20260509040049 65 0 0.0 0.0 0.00 0.00 0.00 81 1015.8
20260509035539 65 0 0.0 0.0 0.00 0.00 0.00 81 1015.9
20260509035036 65 0 0.0 0.0 0.00 0.00 0.00 80 1015.7
20260509034550 65 0 0.0 0.0 0.00 0.00 0.00 80 1015.9
20260509034035 65 0 0.0 0.0 0.00 0.00 0.00 80 1016.0
20260509033537 65 0 0.0 0.0 0.00 0.00 0.00 80 1016.0
20260509033100 65 0 0.0 0.0 0.00 0.00 0.00 79 1016.0
20260509032536 65 0 0.0 0.0 0.00 0.00 0.00 79 1015.9
20260509032036 65 0 0.0 0.0 0.00 0.00 0.00 79 1016.0
20260509031552 65 0 0.0 0.0 0.00 0.00 0.00 79 1016.0
20260509031036 65 0 0.0 0.0 0.00 0.00 0.00 79 1016.0
20260509030540 65 0 0.0 0.0 0.00 0.00 0.00 79 1016.1
20260509030052 65 0 0.0 0.0 0.00 0.00 0.00 79 1016.1
20260509025536 65 0 0.0 0.0 0.00 0.00 0.00 79 1016.3
20260509025038 65 0 0.0 0.0 0.00 0.00 0.00 78 1016.3
20260509024546 65 0 0.0 0.0 0.00 0.00 0.00 78 1016.4
20260509024036 65 0 0.0 0.0 0.00 0.00 0.00 78 1016.2
20260509023538 65 0 0.0 0.0 0.00 0.00 0.00 78 1016.0
20260509023047 65 0 0.0 0.0 0.00 0.00 0.00 78 1015.8
20260509022541 65 0 0.0 0.0 0.00 0.00 0.00 78 1015.9
20260509022040 65 0 0.0 0.0 0.00 0.00 0.00 78 1015.7
20260509021550 65 0 0.0 0.0 0.00 0.00 0.00 78 1015.7
20260509021036 65 0 0.0 0.0 0.00 0.00 0.00 78 1015.8
20260509020536 65 0 0.0 0.0 0.00 0.00 0.00 78 1015.7
20260509020047 65 0 0.0 0.0 0.00 0.00 0.00 77 1015.8
20260509015536 65 0 0.0 0.0 0.00 0.00 0.00 77 1015.9
20260509015037 65 0 0.0 0.0 0.00 0.00 0.00 77 1015.9
20260509014549 65 0 0.0 0.0 0.00 0.00 0.00 77 1015.9
20260509014036 65 0 0.0 0.0 0.00 0.00 0.00 76 1015.8
20260509013536 66 0 0.0 1.0 0.00 0.00 0.00 76 1015.7
20260509013053 66 0 0.0 1.0 0.00 0.00 0.00 76 1015.7
20260509012536 66 0 0.0 0.0 0.00 0.00 0.00 76 1015.4
20260509012036 66 0 0.0 0.0 0.00 0.00 0.00 76 1015.5
20260509011557 66 0 0.0 0.0 0.00 0.00 0.00 76 1015.6
20260509011042 66 0 0.0 0.0 0.00 0.00 0.00 75 1015.7
20260509010540 66 0 0.0 0.0 0.00 0.00 0.00 75 1015.6
20260509010051 66 0 0.0 0.0 0.00 0.00 0.00 75 1015.5
20260509005536 66 0 0.0 1.0 0.00 0.00 0.00 75 1015.6
20260509005040 66 0 0.0 1.0 0.00 0.00 0.00 75 1015.6
20260509004559 66 0 0.0 1.0 0.00 0.00 0.00 75 1015.4
20260509004037 66 0 0.0 3.0 0.00 0.00 0.00 75 1015.4
20260509003537 66 0 0.0 3.0 0.00 0.00 0.00 74 1015.4
20260509003049 66 0 0.0 4.0 0.00 0.00 0.00 74 1015.3
20260509002538 66 0 0.0 4.0 0.00 0.00 0.00 74 1015.1
20260509002037 66 0 1.0 4.0 0.00 0.00 0.00 74 1015.1
20260509001548 66 43 1.0 4.0 0.00 0.00 0.00 74 1015.0
20260509001037 66 71 1.0 4.0 0.00 0.00 0.00 73 1015.1
20260509000539 66 107 0.0 2.0 0.00 0.00 0.00 74 1015.1
20260509000049 66 0 0.0 3.0 0.00 0.00 0.00 73 1015.1
20260508235536 66 0 0.0 3.0 0.00 0.00 0.00 73 1015.1
20260508235039 66 0 0.0 3.0 0.00 0.00 0.00 73 1015.0
20260508234550 66 0 0.0 4.0 0.00 0.00 0.00 73 1015.0
20260508234039 66 0 0.0 4.0 0.00 0.00 0.00 73 1014.9
20260508233536 66 64 0.0 4.0 0.00 0.00 0.00 73 1014.9
20260508233052 66 0 0.0 3.0 0.00 0.00 0.00 73 1014.9
20260508232536 67 68 0.0 3.0 0.00 0.00 0.00 73 1014.9
20260508232038 67 16 0.0 2.0 0.00 0.00 0.00 73 1015.0
20260508231553 67 0 0.0 2.0 0.00 0.00 0.00 73 1015.1
20260508231037 67 0 0.0 2.0 0.00 0.00 0.00 73 1015.2
20260508230539 67 0 0.0 5.0 0.00 0.00 0.00 74 1015.2
20260508230054 67 0 1.0 6.0 0.00 0.00 0.00 74 1015.1
20260508225536 67 59 1.0 6.0 0.00 0.00 0.00 74 1015.0
20260508225039 67 59 1.0 4.0 0.00 0.00 0.00 74 1015.0
20260508224545 67 93 0.0 3.0 0.00 0.00 0.00 74 1014.8
20260508224036 67 113 1.0 3.0 0.00 0.00 0.00 74 1014.7
20260508223536 67 64 1.0 4.0 0.00 0.00 0.00 74 1014.9
20260508223052 67 14 0.0 6.0 0.00 0.00 0.00 73 1014.9
20260508222538 67 78 1.0 7.0 0.00 0.00 0.00 74 1014.8
20260508222036 67 0 1.0 7.0 0.00 0.00 0.00 74 1014.7
20260508221553 67 0 0.0 3.0 0.00 0.00 0.00 73 1014.8
20260508221037 67 355 1.0 4.0 0.00 0.00 0.00 72 1015.0
20260508220536 68 167 0.0 4.0 0.00 0.00 0.00 72 1015.1
20260508220048 67 163 0.0 4.0 0.00 0.00 0.00 72 1015.2
20260508215536 67 355 1.0 3.0 0.00 0.00 0.00 72 1015.0
20260508215038 68 0 1.0 4.0 0.00 0.00 0.00 72 1014.8
20260508214550 68 93 1.0 4.0 0.00 0.00 0.00 72 1014.9
20260508214040 68 76 1.0 5.0 0.00 0.00 0.00 71 1014.9
20260508213540 68 32 1.0 6.0 0.00 0.00 0.00 71 1014.9
20260508213049 68 0 1.0 6.0 0.00 0.00 0.00 72 1015.1
20260508212540 69 206 0.0 7.0 0.00 0.00 0.00 72 1015.3
20260508212038 68 188 3.0 7.0 0.00 0.00 0.00 71 1015.3
20260508211546 68 35 1.0 5.0 0.00 0.00 0.00 71 1015.3
20260508211037 68 215 2.0 8.0 0.00 0.00 0.00 72 1015.2
20260508210537 68 171 1.0 8.0 0.00 0.00 0.00 72 1015.2
20260508210046 68 36 1.0 6.0 0.00 0.00 0.00 71 1015.0
20260508205536 68 317 1.0 6.0 0.00 0.00 0.00 70 1015.0
20260508205037 68 94 1.0 6.0 0.00 0.00 0.00 71 1015.0
20260508204552 68 5 1.0 8.0 0.00 0.00 0.00 71 1015.0
20260508204036 68 105 1.0 8.0 0.00 0.00 0.00 70 1015.0
20260508203536 68 156 2.0 8.0 0.00 0.00 0.00 71 1015.1
20260508203053 68 173 1.0 6.0 0.00 0.00 0.00 70 1014.9
20260508202538 69 118 1.0 7.0 0.00 0.00 0.00 68 1014.9
20260508202037 69 98 1.0 7.0 0.00 0.00 0.00 67 1014.8
20260508201547 69 131 2.0 14.0 0.00 0.00 0.00 67 1015.0
20260508201036 69 90 3.0 14.0 0.00 0.00 0.00 66 1015.2
20260508200536 69 115 4.0 14.0 0.00 0.00 0.00 66 1015.4
20260508195536 70 84 1.0 7.0 0.00 0.04 0.00 65 1015.5
20260508195041 70 157 3.0 7.0 0.00 0.04 0.00 66 1015.6
20260508194555 71 139 3.0 7.0 0.00 0.04 0.00 61 1015.7
20260508194035 71 109 1.0 9.0 0.00 0.04 0.00 64 1015.7
20260508193536 72 123 3.0 9.0 0.00 0.04 0.00 61 1015.9
20260508193056 72 53 2.0 9.0 0.00 0.04 0.00 62 1015.6
20260508192537 71 190 2.0 7.0 0.00 0.04 0.00 62 1015.5
20260508192037 71 234 1.0 7.0 0.00 0.04 0.00 65 1015.6
20260508191552 70 242 2.0 8.0 0.00 0.04 0.00 62 1015.7
20260508191036 70 76 2.0 9.0 0.00 0.04 0.00 64 1015.8
20260508190539 71 200 2.0 9.0 0.00 0.04 0.00 63 1015.7
20260508190052 71 210 2.0 11.0 0.00 0.04 0.00 62 1015.8
20260508185536 71 234 4.0 11.0 0.00 0.04 0.00 63 1015.8
20260508185042 73 167 2.0 9.0 0.00 0.04 0.00 62 1015.9
20260508184553 72 10 2.0 10.0 0.00 0.04 0.00 61 1016.0
20260508184038 73 92 3.0 10.0 0.00 0.04 0.00 63 1016.0
20260508183536 73 123 2.0 9.0 0.00 0.04 0.00 64 1016.1
20260508183049 72 71 2.0 9.0 0.00 0.04 0.00 62 1016.1
20260508182540 72 229 2.0 9.0 0.00 0.04 0.00 60 1016.0
20260508182036 73 106 3.0 9.0 0.00 0.04 0.00 61 1016.0
20260508181552 73 120 3.0 8.0 0.00 0.04 0.00 64 1016.1
20260508181039 72 40 2.0 8.0 0.00 0.04 0.00 63 1016.2
20260508180537 72 195 2.0 9.0 0.00 0.04 0.00 61 1016.2
20260508180053 73 70 3.0 9.0 0.00 0.04 0.00 61 1016.4
20260508175537 73 198 2.0 8.0 0.00 0.04 0.00 60 1016.4
20260508175037 73 50 3.0 8.0 0.00 0.04 0.00 60 1016.4
20260508174609 73 179 2.0 9.0 0.00 0.04 0.00 58 1016.3
20260508174038 73 172 2.0 9.0 0.00 0.04 0.00 61 1016.5
20260508173537 73 195 2.0 7.0 0.00 0.04 0.00 56 1016.4
20260508173048 73 61 1.0 7.0 0.00 0.04 0.00 59 1016.4
20260508172536 72 168 3.0 7.0 0.00 0.04 0.00 57 1016.6
20260508172038 73 194 2.0 8.0 0.00 0.04 0.00 60 1016.7
20260508171547 73 147 2.0 8.0 0.00 0.04 0.00 56 1016.6
20260508171040 72 189 2.0 8.0 0.00 0.04 0.00 57 1016.7
20260508170537 73 165 2.0 9.0 0.00 0.04 0.00 58 1016.7
20260508170052 72 192 2.0 10.0 0.00 0.04 0.00 57 1016.7
20260508165536 73 163 1.0 10.0 0.00 0.04 0.00 58 1016.5
20260508165037 72 196 3.0 10.0 0.00 0.04 0.00 52 1016.5
20260508164547 73 185 2.0 8.0 0.00 0.04 0.00 60 1016.6
20260508164037 74 121 2.0 8.0 0.00 0.04 0.00 54 1016.8
20260508163536 73 150 2.0 7.0 0.00 0.04 0.00 52 1016.8
20260508163048 73 90 2.0 7.0 0.00 0.04 0.00 50 1016.9
20260508162537 73 350 1.0 6.0 0.00 0.04 0.00 51 1017.0
20260508162037 72 66 1.0 6.0 0.00 0.04 0.00 51 1017.0
20260508161548 72 130 2.0 9.0 0.00 0.04 0.00 53 1017.1
20260508161037 72 111 2.0 9.0 0.00 0.04 0.00 53 1017.3
20260508160536 71 28 2.0 9.0 0.00 0.04 0.00 50 1017.3
20260508160053 70 89 2.0 7.0 0.00 0.04 0.00 52 1017.3
20260508155539 70 98 1.0 7.0 0.00 0.04 0.00 52 1017.5
20260508155036 70 117 1.0 6.0 0.00 0.04 0.00 53 1017.6
20260508154553 69 91 1.0 6.0 0.00 0.04 0.00 55 1017.7
20260508154036 70 59 1.0 7.0 0.00 0.04 0.00 54 1017.7
20260508153539 69 113 2.0 8.0 0.00 0.04 0.00 54 1017.6
20260508153050 69 84 3.0 8.0 0.00 0.04 0.00 53 1017.6
20260508152536 70 19 3.0 8.0 0.00 0.04 0.00 54 1017.6
20260508152040 70 138 2.0 8.0 0.00 0.04 0.00 53 1017.7
20260508151558 69 45 3.0 8.0 0.00 0.04 0.00 56 1017.5
20260508151037 69 84 2.0 6.0 0.00 0.04 0.00 55 1017.5
20260508150537 70 44 1.0 8.0 0.00 0.04 0.00 58 1017.6
20260508150050 69 59 2.0 8.0 0.00 0.04 0.00 57 1017.6
20260508145536 69 126 2.0 7.0 0.00 0.04 0.00 58 1017.6
20260508145037 68 315 3.0 7.0 0.00 0.04 0.00 61 1017.6
20260508144552 68 71 1.0 6.0 0.00 0.04 0.00 61 1017.5
20260508144037 67 73 1.0 9.0 0.00 0.04 0.00 58 1017.4
20260508143540 67 316 2.0 9.0 0.00 0.04 0.00 62 1017.4
20260508143056 67 342 2.0 11.0 0.00 0.04 0.00 59 1017.5
20260508142537 67 333 3.0 11.0 0.00 0.04 0.00 60 1017.4
20260508142037 67 5 2.0 8.0 0.00 0.04 0.00 62 1017.3
20260508141552 67 76 1.0 5.0 0.00 0.04 0.00 64 1017.1
20260508141036 66 46 1.0 6.0 0.00 0.04 0.00 64 1017.1
20260508140536 65 336 2.0 9.0 0.00 0.04 0.00 66 1017.2
20260508140057 65 69 0.0 9.0 0.00 0.04 0.00 67 1017.2
20260508135540 64 81 3.0 9.0 0.00 0.04 0.00 67 1017.2